ITHETF43 Weather Reports


Display with metric or nautical units.
time (UTC)temp
F
wind
direction
speed
MPH
gust
MPH
rain 1hr
in
rain 24hr
in
rain mn
in
humidity
%
barometer
mb
20260508013052 41 0 0.0 0.0 0.00 0.00 0.00 87 1016.7
20260508011600 42 0 0.0 0.0 0.00 0.00 0.00 87 1016.8
20260508010056 42 0 0.0 1.0 0.00 0.00 0.00 87 1016.8
20260508004555 42 0 0.0 1.0 0.00 0.00 0.00 87 1016.8
20260508003108 43 0 0.0 1.0 0.00 0.00 0.00 87 1016.9
20260508001545 43 0 0.0 0.0 0.00 0.00 0.00 86 1017.1
20260508000050 44 0 0.0 1.0 0.00 0.00 0.00 86 1017.1
20260507234548 44 0 0.0 0.0 0.00 0.00 0.00 87 1017.1
20260507233044 45 0 0.0 0.0 0.00 0.00 0.00 86 1017.2
20260507231606 45 0 0.0 0.0 0.00 0.00 0.00 85 1017.4
20260507230052 46 0 0.0 1.0 0.00 0.00 0.00 85 1017.4
20260507224557 47 0 0.0 0.0 0.00 0.00 0.00 84 1017.4
20260507223050 47 0 0.0 1.0 0.00 0.00 0.00 84 1017.4
20260507221554 48 0 0.0 1.0 0.00 0.00 0.00 83 1017.4
20260507220051 48 0 0.0 2.0 0.00 0.00 0.00 83 1017.4
20260507214601 49 0 0.0 2.0 0.00 0.00 0.00 83 1017.4
20260507213055 49 138 0.0 2.0 0.00 0.00 0.00 83 1017.5
20260507211552 49 0 0.0 3.0 0.00 0.00 0.00 82 1017.6
20260507210054 49 0 0.0 2.0 0.00 0.00 0.00 81 1017.5
20260507204557 50 0 0.0 3.0 0.00 0.00 0.00 81 1017.5
20260507203052 50 0 0.0 3.0 0.00 0.00 0.00 80 1017.4
20260507201544 51 0 0.0 3.0 0.00 0.00 0.00 78 1017.1
20260507200042 51 149 0.0 3.0 0.00 0.00 0.00 77 1016.9
20260507194549 52 139 1.0 6.0 0.00 0.00 0.00 76 1016.8
20260507193052 52 0 1.0 4.0 0.00 0.00 0.00 76 1016.8
20260507191545 52 0 2.0 6.0 0.00 0.00 0.00 75 1016.6
20260507184551 53 0 1.0 5.0 0.00 0.00 0.00 73 1016.5
20260507183056 53 0 2.0 7.0 0.00 0.00 0.00 72 1016.5
20260507181549 54 177 2.0 7.0 0.00 0.00 0.00 71 1016.5
20260507180053 54 141 2.0 7.0 0.00 0.00 0.00 70 1016.2
20260507174546 54 123 2.0 9.0 0.00 0.00 0.00 69 1016.2
20260507173056 55 132 1.0 6.0 0.00 0.00 0.00 67 1016.1
20260507171557 55 198 1.0 5.0 0.00 0.00 0.00 66 1016.1
20260507170052 55 144 2.0 10.0 0.00 0.00 0.00 65 1016.0
20260507164554 56 0 1.0 11.0 0.00 0.00 0.00 64 1016.0
20260507163048 56 225 2.0 7.0 0.00 0.00 0.00 63 1016.0
20260507161553 56 205 1.0 5.0 0.00 0.00 0.00 61 1016.1
20260507160051 56 0 1.0 5.0 0.00 0.00 0.00 62 1016.1
20260507154544 56 192 1.0 7.0 0.00 0.00 0.00 62 1016.1
20260507153055 57 219 2.0 7.0 0.00 0.00 0.00 62 1016.0
20260507151549 57 279 2.0 8.0 0.00 0.00 0.00 62 1016.0
20260507150047 57 199 1.0 8.0 0.00 0.00 0.00 61 1016.0
20260507144550 58 162 2.0 7.0 0.00 0.00 0.00 59 1016.0
20260507143051 59 155 1.0 3.0 0.00 0.00 0.00 54 1015.9
20260507141542 59 0 1.0 6.0 0.00 0.00 0.00 54 1016.0
20260507140108 59 201 1.0 6.0 0.00 0.00 0.00 54 1016.1
20260507134550 60 169 1.0 4.0 0.00 0.00 0.00 53 1016.2
20260507133057 59 252 1.0 5.0 0.00 0.00 0.00 55 1016.2
20260507131603 60 119 1.0 4.0 0.00 0.00 0.00 55 1016.2
20260507130108 59 0 0.0 4.0 0.00 0.00 0.00 56 1016.3
20260507124552 58 101 1.0 5.0 0.00 0.00 0.00 57 1016.3
20260507123057 58 162 1.0 5.0 0.00 0.00 0.00 58 1016.4
20260507121550 57 113 1.0 5.0 0.00 0.00 0.00 58 1016.3
20260507120048 57 174 0.0 5.0 0.00 0.00 0.00 59 1016.4
20260507114547 57 71 1.0 6.0 0.00 0.00 0.00 60 1016.4
20260507113044 57 60 1.0 3.0 0.00 0.00 0.00 61 1016.4
20260507111547 57 167 2.0 7.0 0.00 0.00 0.00 60 1016.7
20260507110049 58 136 1.0 6.0 0.00 0.00 0.00 58 1016.7
20260507104550 59 128 1.0 6.0 0.00 0.00 0.00 56 1016.8
20260507103054 59 213 1.0 7.0 0.00 0.00 0.00 58 1016.8
20260507101553 60 140 3.0 7.0 0.00 0.00 0.00 56 1016.9
20260507100051 59 0 0.0 7.0 0.00 0.00 0.00 59 1016.8
20260507094554 58 155 3.0 7.0 0.00 0.00 0.00 58 1016.8
20260507093052 57 241 2.0 7.0 0.00 0.00 0.00 63 1016.8
20260507091559 55 0 1.0 4.0 0.00 0.00 0.00 67 1016.8
20260507090049 54 152 0.0 3.0 0.00 0.00 0.00 69 1016.8
20260507084551 54 0 0.0 3.0 0.00 0.00 0.00 69 1016.8
20260507083056 54 108 1.0 7.0 0.00 0.00 0.00 67 1016.8
20260507081544 53 162 0.0 3.0 0.00 0.00 0.00 69 1016.7
20260507080114 53 149 1.0 4.0 0.00 0.00 0.00 69 1016.8
20260507074556 53 117 1.0 6.0 0.00 0.00 0.00 69 1016.6
20260507073058 53 113 1.0 4.0 0.00 0.00 0.00 71 1016.6
20260507071600 51 122 0.0 4.0 0.00 0.00 0.00 76 1016.6
20260507070048 50 123 2.0 5.0 0.00 0.00 0.00 78 1016.5
20260507064551 49 146 1.0 5.0 0.00 0.00 0.00 80 1016.4
20260507063046 48 0 0.0 4.0 0.00 0.00 0.00 84 1016.3
20260507061552 47 0 0.0 0.0 0.00 0.00 0.00 88 1016.4
20260507060043 46 0 0.0 0.0 0.00 0.00 0.00 90 1016.3
20260507054604 45 0 0.0 0.0 0.00 0.00 0.00 91 1016.2
20260507053049 45 0 0.0 0.0 0.00 0.00 0.00 91 1016.1
20260507051552 44 0 0.0 0.0 0.00 0.00 0.00 91 1016.0
20260507050051 44 0 0.0 0.0 0.00 0.00 0.00 91 1016.0
20260507044556 44 0 0.0 0.0 0.00 0.00 0.00 90 1015.9
20260507043050 44 0 0.0 0.0 0.00 0.00 0.00 90 1015.8
20260507041559 44 0 0.0 0.0 0.00 0.00 0.00 89 1015.7
20260507040104 44 0 0.0 0.0 0.00 0.00 0.00 89 1015.6
20260507034553 45 0 0.0 0.0 0.00 0.00 0.00 89 1015.6
20260507033045 45 0 0.0 0.0 0.00 0.00 0.00 88 1015.6
20260507031546 45 0 0.0 0.0 0.00 0.00 0.00 88 1015.6
20260507030048 46 0 0.0 0.0 0.00 0.00 0.00 88 1015.6
20260507024544 46 0 0.0 0.0 0.00 0.00 0.00 88 1015.6
20260507023044 46 0 0.0 0.0 0.00 0.00 0.00 88 1015.6
20260507021546 46 0 0.0 0.0 0.00 0.00 0.00 88 1015.7
20260507020100 46 0 0.0 2.0 0.00 0.00 0.00 88 1015.6
20260507014559 46 0 0.0 3.0 0.00 0.00 0.00 87 1015.6